Terug naar catalogus

STARLINK-11577

ActiefCommunicatieVLEO
NORAD 63013·PAYLOAD·🇺🇸 United States

Gelanceerd Feb 15, 2025 vanaf Cape Canaveral Space Force Station

Loading…

Volgende Passages (komende 24 uur)

TLE

VersSource: CelesTrak SupGP

Epoch: Sep 15, 2026, 02:18 UTC

1 63013C 25032J   26258.09631944  .00054916  00000+0  42648-3 0  2583
2 63013  43.0004 133.7425 0001575 265.4501  22.3217 15.70814566    13

Volg STARLINK-11577 in realtime met AllMySat

Download on the App Store